Content
SEND FEEDBACK

Mexico Flag

MORELIA, MICHOACAN


Home > North America > Mexico > Michoacan
Elevation: 6275 feet     Latitude: 19 42N     Longitude: 101 11W

WEATHER
 
SELECT A DAY
Number of Records: 166,835;   Date Range: 1/1/95 - 2/13/16
 
SHARE

PRINT THIS DATA

[ ← Previous Day ]
WEATHER ALMANAC - FEBRUARY 18, 2013
[ Next Day → ]
[ °C ]   °F
Weather ElementAverageHighLow
Temperature61.3 °F82 °F (2:55 pm)39.2 °F (6:23 am)
Dewpoint36.7 °F42.8 °F (9:45 am)30.2 °F (4:45 pm)
Humidity43.2 %81 % (6:23 am)10 % (2:55 pm)
Barometer30.05 in30.31 in (9:45 am)29.71 in (5:55 pm)
Wind Speed3.1 mph13.4 mph (2:55 pm)
Weather ElementAverage
Visibility7.8 mi
Wind DirectionESE (127.4 °)

Weather ElementTotal
Precipitation---
Heating Degree Days4.4 (Base 65)
Growing Degree Days10.6 (Base 50)
Averaged from 31 records on February 18, 2013
WEATHER CONDITIONS BREAKOUT
WIND DIRECTION BREAKOUT
WEATHER BY HOUR - FEBRUARY 18, 2013
[ °C ]   °F
Local TimeTemperatureDewpointHumidityBarometerVisibilityWind DirectionWind SpeedGust SpeedPrecipitationEventsConditions
1:42 AM50.0 °F39.2 °F66 %30.24 in7.0 miCalmClear
2:50 AM53.0 °F42.0 °F56 %29.85 in5.0 miSouth (180°)2.2 mph
4:03 AM42.8 °F35.6 °F76 %30.22 in7.0 miCalmClear
4:42 AM42.8 °F35.6 °F76 %30.23 in7.0 miCalmClear
5:50 AM47.0 °F38.0 °F63 %29.96 in5.0 miSouth (180°)2.2 mph
6:23 AM39.2 °F33.8 °F81 %29.95 in7.0 miCalmClear
6:45 AM41.0 °F35.6 °F81 %30.25 in7.0 miCalmClear
7:40 AM41.0 °F35.6 °F81 %30.28 in10.0 miCalmClear
8:16 AM48.2 °F39.2 °F71 %30.29 in10.0 miCalmClear
8:47 AM53.6 °F39.2 °F58 %29.97 in10.0 miCalmClear
8:55 AM50.0 °F30.05 in6.0 miSSE (160°)2.2 mph
9:45 AM62.6 °F42.8 °F48 %30.31 in10.0 miCalmClear
10:40 AM66.2 °F42.8 °F43 %30.30 in10.0 miVariable2.3 mphClear
11:41 AM71.6 °F41.0 °F33 %29.91 in10.0 miVariable2.3 mphClear
11:45 AM76.0 °F42.0 °F19 %30.03 in9.0 miSSE (160°)4.5 mph
12:42 PM77.0 °F37.4 °F24 %30.24 in10.0 miNW (320°)5.8 mphClear
1:40 PM77.0 °F35.6 °F22 %30.20 in10.0 miNW (310°)6.9 mphClear
2:50 PM78.8 °F35.6 °F21 %29.80 in8.0 miWNW (300°)3.5 mphClear
2:55 PM82.0 °F35.0 °F10 %29.83 in9.0 miWNW (300°)13.4 mph
3:41 PM80.6 °F33.8 °F18 %30.13 in8.0 miNorth (360°)10.4 mphClear
4:45 PM78.8 °F30.2 °F17 %30.13 in8.0 miNW (320°)4.6 mphClear
5:47 PM78.8 °F32.0 °F18 %29.81 in8.0 miNorth (360°)8.1 mphClear
5:55 PM77.0 °F33.0 °F11 %29.71 in9.0 miWNW (300°)8.9 mph
6:46 PM71.6 °F33.8 °F25 %30.13 in8.0 miNorth (360°)3.5 mphClear
7:45 PM66.2 °F35.6 °F32 %30.15 in7.0 miCalmClear
8:40 PM59.0 °F33.8 °F39 %29.87 in6.0 miCalmClear
8:50 PM66.0 °F38.0 °F24 %29.71 in6.0 miESE (120°)6.7 mph
9:46 PM57.2 °F33.8 °F41 %30.19 in7.0 miCalmClear
10:46 PM55.4 °F33.8 °F44 %30.21 in7.0 miCalmClear
11:44 PM51.8 °F35.6 °F54 %29.86 in7.0 miCalmClear
11:50 PM59.0 °F42.0 °F43 %29.77 in5.0 miSW (220°)8.9 mph
Hourly data recorded from MMMM, located miles away from Morelia, Michoacan




STORIES FROM OUR PARTNERS